CW7923 Weather Reports


Display with metric or nautical units.
time (UTC)temp
F
wind
direction
speed
MPH
gust
MPH
rain 1hr
in
rain 24hr
in
rain mn
in
humidity
%
barometer
mb
20260505200121 60 281 4.0 9.0 0.00 0.00 0.00 50 1003.6
20260505195048 61 9 3.0 10.0 0.00 0.00 0.00 49 1003.8
20260505191755 59 313 2.0 8.0 0.00 0.00 0.00 55 1004.1
20260505190740 58 266 2.0 14.0 0.00 0.00 0.00 58 1004.3
20260505185759 58 134 5.0 14.0 0.00 0.00 0.00 59 1004.3
20260505184805 58 161 4.0 11.0 0.00 0.00 0.00 57 1004.3
20260505183812 58 156 4.0 11.0 0.00 0.00 0.00 56 1004.4
20260505182837 59 248 2.0 6.0 0.00 0.00 0.00 52 1004.3
20260505181848 59 281 2.0 6.0 0.00 0.00 0.00 50 1004.2
20260505180813 60 298 1.0 2.0 0.00 0.00 0.00 48 1004.1
20260505175811 60 219 0.0 7.0 0.00 0.00 0.00 48 1004.1
20260505174813 59 234 2.0 7.0 0.00 0.00 0.00 48 1004.1
20260505173833 60 273 1.0 3.0 0.00 0.00 0.00 46 1004.0
20260505171719 58 308 1.0 7.0 0.00 0.00 0.00 49 1003.8
20260505170733 58 294 3.0 9.0 0.00 0.00 0.00 50 1004.1
20260505165705 57 33 5.0 9.0 0.00 0.00 0.00 49 1004.1
20260505164648 57 327 6.0 11.0 0.00 0.00 0.00 50 1004.0
20260505163701 56 302 7.0 13.0 0.00 0.00 0.00 51 1003.8
20260505162638 56 327 8.0 13.0 0.00 0.00 0.00 52 1004.1
20260505161608 55 319 7.0 12.0 0.00 0.00 0.00 57 1003.9
20260505160555 54 315 9.0 18.0 0.00 0.00 0.00 58 1004.1
20260505152443 54 291 8.0 14.0 0.00 0.00 0.00 62 1004.6
20260505151424 54 298 9.0 12.0 0.00 0.00 0.00 63 1004.7
20260505150418 54 325 8.0 13.0 0.00 0.00 0.00 64 1004.6
20260505140252 58 324 2.0 13.0 0.00 0.00 0.00 51 1004.8
20260505124001 58 295 0.0 3.0 0.00 0.00 0.00 42 1003.4
20260505121857 58 281 1.0 3.0 0.00 0.00 0.00 41 1003.5
20260505115722 58 303 0.0 3.0 0.00 0.00 0.00 40 1003.6
20260505114733 58 296 0.0 4.0 0.00 0.00 0.00 41 1003.4
20260505113718 59 162 1.0 6.0 0.00 0.00 0.00 40 1003.4
20260505112721 59 261 1.0 6.0 0.00 0.00 0.00 41 1003.2
20260505110534 59 263 2.0 6.0 0.00 0.00 0.00 39 1003.2
20260505101411 59 156 1.0 5.0 0.00 0.00 0.00 35 1003.9
20260505100428 59 185 0.0 3.0 0.00 0.00 0.00 36 1003.6
20260505095431 59 241 0.0 3.0 0.00 0.00 0.00 36 1003.7
20260505094426 58 175 0.0 3.0 0.00 0.00 0.00 36 1003.5
20260505093418 59 242 0.0 0.0 0.00 0.00 0.00 36 1003.5
20260505092401 59 198 0.0 0.0 0.00 0.00 0.00 37 1003.6
20260505091413 59 198 0.0 0.0 0.00 0.00 0.00 36 1003.8
20260505090413 61 295 0.0 0.0 0.00 0.00 0.00 33 1003.8
20260505085429 61 295 0.0 0.0 0.00 0.00 0.00 33 1004.0
20260505083323 62 295 0.0 0.0 0.00 0.00 0.00 33 1004.2
20260505082335 62 295 0.0 0.0 0.00 0.00 0.00 32 1004.5
20260505081334 62 295 0.0 0.0 0.00 0.00 0.00 32 1004.3
20260505080303 63 295 0.0 5.0 0.00 0.00 0.00 32 1004.6
20260505074102 63 261 0.0 0.0 0.00 0.00 0.00 31 1004.7
20260505073112 64 261 0.0 0.0 0.00 0.00 0.00 31 1004.6
20260505072100 64 262 0.0 2.0 0.00 0.00 0.00 30 1004.5
20260505071058 64 263 0.0 3.0 0.00 0.00 0.00 30 1004.6
20260505070110 64 268 0.0 2.0 0.00 0.00 0.00 30 1004.6
20260505065041 65 269 0.0 0.0 0.00 0.00 0.00 29 1004.3
20260505064103 65 273 0.0 1.0 0.00 0.00 0.00 28 1004.2
20260505063037 65 277 0.0 1.0 0.00 0.00 0.00 28 1004.1
20260505062009 65 277 0.0 1.0 0.00 0.00 0.00 28 1004.0
20260505060941 66 277 0.0 0.0 0.00 0.00 0.00 27 1004.1
20260505054829 67 276 0.0 4.0 0.00 0.00 0.00 25 1003.9
20260505053758 67 264 0.0 6.0 0.00 0.00 0.00 25 1003.9
20260505052805 67 267 0.0 6.0 0.00 0.00 0.00 25 1003.8
20260505051757 67 269 0.0 1.0 0.00 0.00 0.00 24 1003.8
20260505050731 68 273 0.0 2.0 0.00 0.00 0.00 24 1003.6
20260505041753 68 304 0.0 0.0 0.00 0.00 0.00 23 1003.5
20260505040726 68 304 0.0 0.0 0.00 0.00 0.00 24 1003.3
20260505035712 68 304 0.0 0.0 0.00 0.00 0.00 23 1003.4
20260505034721 69 304 0.0 0.0 0.00 0.00 0.00 23 1003.4
20260505033658 69 304 0.0 0.0 0.00 0.00 0.00 23 1003.2
20260505032702 70 304 0.0 0.0 0.00 0.00 0.00 23 1003.0
20260505031715 70 304 0.0 0.0 0.00 0.00 0.00 22 1002.8
20260505030709 70 304 0.0 0.0 0.00 0.00 0.00 21 1002.7
20260505025648 71 309 1.0 8.0 0.00 0.00 0.00 21 1002.4
20260505024636 71 302 0.0 5.0 0.00 0.00 0.00 21 1002.3
20260505023602 71 294 0.0 0.0 0.00 0.00 0.00 21 1002.2
20260505022557 72 300 0.0 6.0 0.00 0.00 0.00 20 1002.2
20260505020451 72 309 0.0 5.0 0.00 0.00 0.00 19 1002.0
20260505015446 73 277 0.0 6.0 0.00 0.00 0.00 19 1001.8
20260505014444 73 267 0.0 5.0 0.00 0.00 0.00 19 1001.9
20260505013433 73 292 0.0 0.0 0.00 0.00 0.00 19 1001.6
20260505012437 74 292 0.0 5.0 0.00 0.00 0.00 18 1001.5
20260505011422 74 281 0.0 2.0 0.00 0.00 0.00 19 1001.4
20260505010408 74 306 0.0 3.0 0.00 0.00 0.00 19 1001.5
20260505003032 75 292 0.0 6.0 0.00 0.00 0.00 17 1001.6
20260505002019 75 266 0.0 3.0 0.00 0.00 0.00 17 1001.7
20260505001044 75 291 0.0 4.0 0.00 0.00 0.00 17 1001.7
20260504234924 75 272 1.0 11.0 0.00 0.00 0.00 16 1001.8
20260504233949 75 291 0.0 10.0 0.00 0.00 0.00 15 1001.9
20260504230639 76 298 1.0 9.0 0.00 0.00 0.00 14 1002.2
20260504225640 76 306 1.0 9.0 0.00 0.00 0.00 13 1002.2
20260504224607 76 300 0.0 8.0 0.00 0.00 0.00 12 1002.2
20260504223536 76 263 2.0 8.0 0.00 0.00 0.00 13 1002.3
20260504222504 77 280 1.0 7.0 0.00 0.00 0.00 13 1002.6
20260504221512 77 282 0.0 7.0 0.00 0.00 0.00 13 1002.7
20260504220532 77 238 2.0 8.0 0.00 0.00 0.00 12 1002.8
20260504215510 77 277 1.0 8.0 0.00 0.00 0.00 10 1003.0
20260504214526 77 294 0.0 4.0 0.00 0.00 0.00 12 1003.1
20260504213507 77 258 0.0 4.0 0.00 0.00 0.00 12 1003.4
20260504212446 77 211 2.0 6.0 0.00 0.00 0.00 12 1003.4
20260504211418 77 218 1.0 9.0 0.00 0.00 0.00 13 1003.5
20260504210355 77 232 1.0 9.0 0.00 0.00 0.00 13 1003.6
20260504205332 76 254 0.0 4.0 0.00 0.00 0.00 14 1004.0
20260504204342 76 235 0.0 1.0 0.00 0.00 0.00 16 1004.1
20260504203334 76 212 2.0 9.0 0.00 0.00 0.00 16 1004.4
20260504202318 76 219 1.0 7.0 0.00 0.00 0.00 17 1004.8
20260504201315 76 229 0.0 0.0 0.00 0.00 0.00 18 1005.1